{"data":{"norad_id":57979,"intl_designator":"2023-151R","name":"STARLINK-30508","alt_names":[],"object_type":"PAYLOAD","status":"ACTIVE","operator":null,"country":"US","launch_date":"2023-09-30","launch_site_code":"AFETR","launch_vehicle":null,"mission":null,"orbit_class":"UNKNOWN","rcs_meters":null,"size_class":null,"mass_kg":null,"dimensions":null,"purposes":["comms"],"wikipedia_slug":null,"has_3d_model":false,"image_url":null,"decayed_at":null,"tle_current":{"epoch":"2026-09-20T21:05:48.997248Z","epoch_age_seconds":104901,"freshness":"FRESH","line1":"1 57979U 23151R   26263.87903932 -.00000050  00000+0  77124-5 0  9990","line2":"2 57979  43.0022 328.4769 0000950 274.8426  85.2317 15.27571934165446","mean_motion":15.27571934,"eccentricity":9.5e-5,"inclination_deg":43.0022,"raan_deg":328.4769,"arg_perigee_deg":274.8426,"mean_anomaly_deg":85.2317,"bstar":7.7124e-6,"rev_number":16544,"period_min":94.267246468015,"perigee_km":482.42143367804,"apogee_km":483.72506362528,"semimajor_km":6861.2102486517,"source":"CELESTRAK","updated_at":"2026-09-21T09:00:33.751668Z"}}}